Location: Salillas
(41.9950°N, 0.2228°W)
Time: 20:27:58
(UTC+00:00)

Cosmos 1892 Rocket - Pass Details

Date: 29 March 2020
Orbit: 605 x 634 km, 82.5° (Epoch: 31 May)

Event Time Altitude Azimuth Distance (km) Brightness Sun altitude
Rises 18:45:47 0° 358° (N) 2,935 7.2 -4.9°
Reaches altitude 10° 18:48:07 10° 5° (N) 2,025 6.3 -5.3°
Maximum altitude 18:52:26 45° 78° (ENE) 868 3.9 -6.1°
Drops below altitude 10° 18:56:43 10° 151° (SSE) 2,013 5.8 -6.9°
Sets 18:59:02 0° 158° (SSE) 2,916 6.7 -7.3°
